World > North America > United States > Washington   City of Chelan, WA

Chelan, Washington Regional Weather

Lat: 47.85N, Lon: 120.03W
Wx Zone: WAZ041Web Search
Chelan Weather Warning NWS WEATHER ALERT FOR THE CHELAN, WA AREA - Issued: 500 AM PST Sun Jan 24 2021 Chelan Weather Warning  

Helpful Tip: Type the letters wx in the search engine next time you need to find us.

Feedback
Chelan Weather Map
UTC Time: 1/25/2021, 07:48
Your Time:

Chelan, WA Regional Weather

Expires:202101250800;;451641
ASUS46 KSEW 250720
RWRWA 

WASHINGTON REGIONAL WEATHER ROUNDUP
NATIONAL WEATHER SERVICE SEATTLE WA
1100 PM PST SUN JAN 24 2021

NOTE:"FAIR" INDICATES FEW OR NO CLOUDS BELOW 12,000 FEET WITH NO 
SIGNIFICANT WEATHER AND/OR OBSTRUCTIONS TO VISIBILITY.


WAZ026-027-041>044-520-521-250800-
EAST SLOPES
  
CITY           SKY/WX    TMP DP  RH WIND       PRES   REMARKS
OMAK           LGT SNOW  26  23  88 CALM      29.81R FOG              
WENATCHEE      CLOUDY    27  27 100 CALM      29.79R                  
ELLENSBURG     LGT SNOW  29  25  85 CALM      29.75R FOG              
YAKIMA         LGT SNOW  31  28  89 CALM      29.79R FOG              
SUNNYSIDE ARPT LGT SNOW  31  30  97 CALM      29.81S                  
YAKIMA TC      LGT SNOW  29  27  92 CALM      29.75S FOG              
$$


SKY/WX - Weather  TMP - Temperature  DP - Dew Point  RH - Relative Humidity
WIND - Wind Direction/Speed PRES - Barometric Pressure VSB - Visibility
WCI - Wind Chill Index E13G22 Wind - East Wind 13 mph/Gusts of 22 mph
Chelan, WA web page url QR Code Scan this code with your camera.